Location: *
(34.8620°S, 39.3380°E)
Time: 23:10:06
(UTC+00:00)

SAOCOM 1-B - Pass Details

Date: 06 June 2022
Orbit: 621 x 623 km, 97.9° (Epoch: 01 July)

Event Time Altitude Azimuth Distance (km) Brightness Sun altitude
Rises 03:44:47 0° 172° (S) 2,940 ? -8.2°
Reaches altitude 10° 03:47:01 10° 175° (S) 2,025 ? -7.8°
Maximum altitude 03:51:23 64° 255° (WSW) 702 ? -7.0°
Drops below altitude 10° 03:55:41 10° 336° (NNW) 1,997 ? -6.1°
Sets 03:57:52 0° 339° (NNW) 2,895 ? -5.7°
